Home Login RADIO ONLINE
Find Radio Online
AM FM HD

Site of the Day
KHOW
Advertisement

Nielsen Audio Ratings

Market Rank: 1-50 | 51-100 | 101-150 | 151-200 | 201-250 | 251-300

Rank Market Posted Survey 12+
Population
75 Baton Rouge LA 10-11-19 4S 702,200
55 Louisville KY 10-11-19 4S 1,041,300
49 New Orleans LA 10-11-19 4S 1,263,000
50 Oklahoma City OK 10-11-19 4S 1,261,000
16 Puerto Rico 10-11-19 4S 2,922,100
33 Austin TX 10-04-19 PPM 1,786,400
47 Greensboro-Winston-Salem-High Point NC 10-04-19 PPM 1,286,200
52 Hartford-New Britain CT 10-04-19 PPM 1,076,300
39 Indianapolis IN 10-04-19 PPM 1,542,800
46 Jacksonville FL 10-04-19 PPM 1,296,100
51 Memphis TN 10-04-19 PPM 1,118,500
41 Milwaukee-Racine WI 10-04-19 PPM 1,498,300
43 Nashville TN 10-04-19 PPM 1,465,700
45 Norfolk-VA Beach-Newport News VA 10-04-19 PPM 1,408,300
44 Providence RI 10-04-19 PPM 1,412,300
38 Raleigh-Durham NC 10-04-19 PPM 1,582,600
48 West Palm Beach FL 10-04-19 PPM 1,285,700
24 Charlotte-Gastonia NC 10-03-19 PPM 2,304,300
32 Cincinnati OH 10-03-19 PPM 1,830,200
34 Cleveland OH 10-03-19 PPM 1,769,200
36 Columbus OH 10-03-19 PPM 1,662,500
35 Kansas City MO 10-03-19 PPM 1,739,300
30 Las Vegas NV 10-03-19 PPM 1,878,600
31 Orlando FL 10-03-19 PPM 1,859,100
28 Pittsburgh PA 10-03-19 PPM 1,987,200
22 Portland OR 10-03-19 PPM 2,354,100
27 Sacramento CA 10-03-19 PPM 2,012,900
29 Salt Lake City UT 10-03-19 PPM 1,930,900
26 San Antonio TX 10-03-19 PPM 2,084,000

Advertisement

21 Baltimore MD 10-02-19 PPM 2,406,400
10 Boston MA 10-02-19 PPM 4,294,800
18 Denver-Boulder CO 10-02-19 PPM 2,720,200
13 Detroit MI 10-02-19 PPM 3,813,700
11 Miami-Fort Lauderdale FL 10-02-19 PPM 4,070,400
15 Minneapolis-St. Paul MN 10-02-19 PPM 2,957,900
14 Phoenix AZ 10-02-19 PPM 3,662,700
17 San Diego CA 10-02-19 PPM 2,853,400
12 Seattle-Tacoma WA 10-02-19 PPM 3,863,400
23 St. Louis MO 10-02-19 PPM 2,341,600
19 Tampa-St. Petersburg FL 10-02-19 PPM 2,704,100
7 Washington DC 10-02-19 PPM 4,921,100
8 Atlanta GA 10-01-19 PPM 4,823,200
3 Chicago IL 10-01-19 PPM 7,945,800
5 Dallas-Ft. Worth TX 10-01-19 PPM 6,063,100
6 Houston-Galveston TX 10-01-19 PPM 5,822,000
2 Los Angeles CA 10-01-19 PPM 11,465,400
42 Middlesex-Somerset-Union 10-01-19 PPM 1,484,800
20 Nassau-Suffolk NY 10-01-19 PPM 2,470,900
1 New York NY 10-01-19 PPM 16,285,500
9 Philadelphia PA 10-01-19 PPM 4,593,500
25 Riverside-San Bernardino CA 10-01-19 PPM 2,092,600
4 San Francisco CA 10-01-19 PPM 6,710,000
37 San Jose CA 10-01-19 PPM 1,654,900
88 Chattanooga TN 09-23-19 4S 596,000
106 Huntsville AL 09-23-19 4S 493,200
127 Jackson MS 09-23-19 4S 419,300
89 Madison WI 09-23-19 4S 590,400
140 Shreveport LA 09-23-19 4S 344,200
90 Colorado Springs CO 09-20-19 4S 589,600

Advertisement

70 Des Moines IA 09-20-19 4S 733,900
101 Mobile AL 09-20-19 4S 535,800
94 Spokane WA 09-20-19 4S 569,400
105 Wichita KS 09-20-19 4S 510,900
84 Columbia SC 09-19-19 4S 605,300
91 Greenville-New Bern NC 09-19-19 4S 587,000
86 Little Rock AR 09-19-19 4S 600,200
100 Springfield MA 09-19-19 4S 550,400
104 Toledo OH 09-19-19 4S 515,100
83 Akron OH 09-18-19 4S 608,700
78 Charleston SC 09-18-19 4S 668,300
85 Monterey-Salinas CA 09-18-19 4S 603,800
95 Syracuse 09-18-19 4S 564,900
69 Albuquerque NM 09-17-19 4S 765,700
76 El Paso TX 09-17-19 4S 689,100
82 Harrisburg-Lebanon-Carlisle PA 09-17-19 4S 612,100
112 York PA 09-17-19 4S 472,300
79 Bakersfield CA 09-16-19 4S 649,100
63 Honolulu HI 09-16-19 4S 847,900
72 Knoxville TN 09-16-19 4S 724,800
74 Omaha-Council Bluffs NE 09-16-19 4S 712,000
65 Tulsa OK 09-16-19 4S 822,700
66 Albany-Schenectady-Troy NY 09-13-19 4S 813,000
71 Allentown-Bethlehem PA 09-13-19 4S 728,100
64 Dayton OH 09-13-19 4S 835,500
67 Fresno CA 09-13-19 4S 803,600
68 Grand Rapids MI 09-13-19 4S 785,600
77 Wilkes Barre-Scranton PA 09-13-19 4S 687,900
61 Birmingham AL 09-12-19 4S 921,700
58 Buffalo-Niagara Falls NY 09-12-19 4S 983,500

Advertisement

57 Fort Myers-Naples-Marco Island FL 09-12-19 4S 984,300
59 Greenville-Spartanburg SC 09-12-19 4S 971,300
53 Richmond VA 09-12-19 4S 1,047,400
60 Rochester NY 09-12-19 4S 962,700
62 Tucson AZ 09-12-19 4S 880,100
256 Bismarck ND 08-12-19 2A 108,600
253 Harrisonburg VA 08-12-19 2A 117,700
267 Jackson TN 08-12-19 2A 82,400
254 Rapid City SD 08-12-19 2A 116,800
259 San Angelo TX 08-12-19 2A 101,600
260 Sioux City IA 08-12-19 2A 101,300
189 Sioux Falls SD 08-12-19 2A 221,000
252 Wichita Falls TX 08-12-19 2A 119,400
235 Abilene TX 08-09-19 2A 144,700
238 Billings MT 08-09-19 2A 135,700
230 Columbia MO 08-09-19 2A 154,500
236 Eau Claire WI 08-09-19 2A 144,300
251 Grand Island-Kearney-Hastings NE 08-09-19 2A 119,700
242 Grand Junction CO 08-09-19 2A 129,000
232 Joplin MO 08-09-19 2A 149,600
221 La Crosse WI 08-09-19 2A 167,000
241 Monroe LA 08-09-19 2A 131,100
225 Panama City FL 08-09-19 2A 159,300
246 Parkersburg-Marietta WV 08-09-19 2A 126,000
222 Rochester MN 08-09-19 2A 164,600
247 Wheeling WV 08-09-19 2S 124,000
200 Bend OR 08-08-19 2A 202,000
207 Cedar Rapids IA 08-08-19 2S 190,000
204 Chico CA 08-08-19 2A 198,100
213 Duluth-Superior MN-WI 08-08-19 2S 179,600

Advertisement

198 Fargo-Moorhead ND-MN 08-08-19 2S 206,000
215 Florence SC 08-08-19 2A 174,700
268 Grand Forks ND 08-08-19 2A 79,600
191 Laredo TX 08-08-19 2A 215,500
187 St. Cloud MN 08-08-19 2C 223,500
239 Waterloo-Cedar Falls IA 08-08-19 2A 134,800
211 Winchester VA 08-08-19 2A 180,000
199 Yakima WA 08-08-19 2A 203,000
170 Amarillo TX 08-07-19 2A 256,500
186 Bryan-College Station TX 08-07-19 2A 225,700
196 Cape Cod MA 08-07-19 2A 208,700
190 Columbus GA 08-07-19 2S 219,200
192 Frederick MD 08-07-19 2C 213,900
168 Lubbock TX 08-07-19 2S 258,900
164 Odessa-Midland TX 08-07-19 2A 266,200
231 Redding CA 08-07-19 2A 154,100
261 Sheboygan WI 08-07-19 2A 99,400
214 Terre Haute IN 08-07-19 2S 175,300
159 Traverse City-Petoskey-Cadillac, MI 08-07-19 2A 298,100
179 Tri-Cities WA 08-07-19 2A 235,400
194 Waco TX 08-07-19 2A 211,500
174 Anchorage AK 08-06-19 2S 248,200
195 Binghamton NY 08-06-19 2S 211,200
173 Bowling Green KY 08-06-19 2A 248,700
197 Charleston WV 08-06-19 2S 208,200
178 Erie PA 08-06-19 2S 235,800
147 Eugene-Springfield OR 08-06-19 2S 329,800
163 Evansville IN 08-06-19 2S 269,900
166 Huntington-Ashland WV 08-06-19 2S 263,900
130 Macon GA 08-06-19 2S 372,400

Advertisement

175 Morgantown-Clarksburg-Fairmont WV 08-06-19 2A 245,700
160 Rockford IL 08-06-19 2S 286,500
162 Tallahassee FL 08-06-19 2S 284,800
250 Valdosta GA 08-06-19 2A 121,100
177 Wausau-Stevens Point WI (Central Wiscons 08-06-19 2A 240,100
240 Albany GA 08-05-19 2A 131,200
150 Ann Arbor MI 08-05-19 2A 324,000
145 Beaumont-Port Arthur TX 08-05-19 2A 333,100
234 Bloomington IL 08-05-19 2S 147,300
264 Brunswick GA 08-05-19 2A 88,700
193 Dothan AL 08-05-19 2A 211,700
141 Killeen-Temple TX 08-05-19 2A 343,200
218 Lake Charles LA 08-05-19 2A 169,900
156 Montgomery AL 08-05-19 2S 307,500
182 New Bedford-Fall River MA 08-05-19 2C 232,500
158 Peoria IL 08-05-19 2S 301,200
155 Quad Cities IL 08-05-19 2S 310,500
134 Salisbury-Ocean City MD 08-05-19 2S 355,000
146 Savannah GA 08-05-19 2S 330,400
135 Springfield MO 08-05-19 2S 354,000
137 Appleton-Oshkosh WI 08-02-19 2S 346,900
111 Corpus Christi TX 08-02-19 2S 479,200
123 Fayetteville (North West Arkansas) AR 08-02-19 2A 430,200
129 Fayetteville NC 08-02-19 2S 381,000
138 Flint MI 08-02-19 2S 345,600
188 Green Bay WI 08-02-19 2S 221,300
128 Lansing-East Lansing MI 08-02-19 2S 414,600
133 Reading PA 08-02-19 2A 355,400
98 Reno NV 08-02-19 2S 555,800
149 Saginaw-Bay City-Midland MI 08-02-19 2A 326,800
244 Texarkana TX-AR 08-02-19 2A 128,300
142 Tyler-Longview TX 08-02-19 2S 337,600
131 Youngstown-Warren OH 08-02-19 2S 372,100
126 Bridgeport CT 08-01-19 2S 420,500
266 Cheyenne WY 08-01-19 2A 83,900
108 Fort Collins-Greeley CO 08-01-19 2A 490,200
117 Modesto CA 08-01-19 2S 453,000
121 Morristown NJ 08-01-19 2C 433,900
124 New Haven CT 08-01-19 2S 428,900
120 Oxnard-Ventura CA 08-01-19 2S 439,200
132 Palm Springs CA 08-01-19 2S 365,400
172 San Luis Obispo CA 08-01-19 2A 250,400
210 Santa Barbara CA 08-01-19 2A 183,400
203 Santa Maria-Lompoc CA 08-01-19 2A 199,600
184 South Bend IN 08-01-19 2S 228,000
114 Victor Valley 08-01-19 2S 468,900
154 Atlantic City NJ 07-31-19 2S 313,600
109 Augusta GA 07-31-19 2S 484,500
245 Florence-Muscle Shoals AL 07-31-19 2A 127,100
115 Fort Wayne IN 07-31-19 2S 457,800

Advertisement

103 Lexington-Fayette KY 07-31-19 2S 518,000
219 Muncie-Marion IN 07-31-19 2A 168,100
119 Roanoke-Lynchburg VA 07-31-19 2S 446,800
248 Sussex NJ 07-31-19 2A 123,900
152 Trenton NJ 07-31-19 2S 319,800
118 Worcester MA 07-31-19 2S 449,900
96 Boise ID 07-30-19 2S 562,800
93 Daytona Beach FL 07-30-19 2S 578,700
99 Fort Pierce-Stuart FL 07-30-19 2S 554,800
183 Fort Walton Beach FL 07-30-19 2A 231,700
92 Lakeland-Winter Haven FL 07-30-19 2S 585,000
102 Melbourne-Titusville-Cocoa FL 07-30-19 2S 523,700
125 Pensacola FL 07-30-19 2S 426,700
237 Pueblo CO 07-30-19 2S 142,400
206 Salina-Manhattan KS 07-30-19 2A 196,000
205 Topeka KS 07-30-19 2S 196,300
249 Twin Falls-Sun Valley ID 07-30-19 2A 123,400
87 Gainesville-Ocala FL 07-29-19 2S 598,500
265 Hot Springs AR 07-29-19 2A 84,700
81 Stockton 07-29-19 2S 616,400
139 Canton OH 07-26-19 2S 345,400
167 Hagerstown-Chambersburg MD 07-26-19 2A 261,200
116 Lancaster PA 07-26-19 2S 456,700
165 Lincoln NE 07-26-19 2S 266,000
136 Myrtle Beach SC 07-26-19 2A 350,700
181 New London CT 07-26-19 2A 234,700
80 Wilmington DE 07-26-19 2S 623,200
113 Johnson City-Kingsport TN 07-25-19 4S 469,900
269 Las Cruces-Deming NM 07-25-19 2A
217 Sunbury-Selinsgrove-Lewisburg PA 07-25-19 2A 171,900

Advertisement

107 Visalia-Tulare-Hanford CA 07-25-19 2S 491,100
262 Williamsport PA 07-25-19 2A 99,200
255 Battle Creek MI 07-24-19 2A 114,100
202 Danbury CT 07-24-19 2A 200,200
161 Ft. Smith AR 07-24-19 2A 284,900
185 Kalamazoo MI 07-24-19 2S 226,200
229 Lima OH 07-24-19 2A 154,900
56 McAllen-Brownsville TX 07-24-19 2S 1,017,400
233 Muskegon MI 07-24-19 2A 148,000
73 Sarasota-Bradenton FL 07-24-19 2S 721,800
151 Stamford-Norwalk CT 07-24-19 2A 322,400
258 Augusta-Waterville ME 07-23-19 2A 105,600
220 Bangor ME 07-23-19 2S 168,000
148 Burlington-Plattsburgh VT-NY 07-23-19 2S 329,400
176 Concord (Lakes Region) 07-23-19 2S 241,400
40 Hudson Valley 07-23-19 2S 1,517,300
226 Lebanon-Hanover-White River Junction, NH 07-23-19 2A
201 Manchester NH 07-23-19 2S 201,800
257 Montpelier-Barre-St. Johnsbury VT 07-23-19 2S 106,500
153 Newburgh-Middletown NY 07-23-19 2A 319,700
97 Portland ME 07-23-19 2S 560,100
122 Portsmouth-Dover NH 07-23-19 2S 432,300
169 Poughkeepsie NY 07-23-19 2A 258,600
171 Utica-Rome NY 07-23-19 2S 251,600
157 Asheville NC 07-22-19 2S 302,300
228 Elmira-Corning NY 07-22-19 2A 156,000
143 Fredericksburg VA 07-22-19 2S 337,300
227 Olean NY 07-22-19 2A 157,300
212 Tuscaloosa AL 07-22-19 2A 179,900
144 Biloxi-Gulfport-Pascagoula MS 07-19-19 2S 333,900

Advertisement

110 Lafayette LA 07-19-19 2S 483,300
216 Laurel-Hattiesburg MS 07-19-19 2A 171,900
54 Monmouth-Ocean NJ 07-19-19 2S 1,044,100
223 Lafayette IN 01-31-19 2S 164,400
243 LaSalle-Peru IL 01-24-19 2A 128,300
224 Hilton Head SC 08-03-18 2A 163,400
180 Merced CA 07-25-18 2A 235,300
209 Charlottesville VA 07-20-18 2A 187,700
208 Medford-Ashland OR 01-26-17 2A 189,900
263 Watertown NY 09-16-15 2A 91,400

Survey Key:
PPM - Portable People Meter
4S - Diary Standard Continuous Measurement
2S - Diary Standard Measurement
2C - Diary Condensed Measurement
2A - Diary 2-book Average

Ratings profiles are Copyright © 2019 Nielsen Audio. May not be quoted orreproduced without the prior written permission of Nielsen Audio.

Advertisement

Promotions Spotlight

Advertisement

Quick Snaps
SiriusXM: Howard Stern commemorated the official grand opening of SiriusXM Hollywood Studios this week, welcoming some of the biggest stars in entertainment for news-making interviews, comedy and live performances. Stern's first West Coast broadcast in almost 20 years kicked off with guests Jennifer Aniston, Robert Downey, Jr., Jimmy Kimmel, Adam Levine and Arnold Schwarzenegger. L-R: Howard Stern and Jennifer Aniston.

Advertisement

Advertisement

Advertisement

Advertisement